When you browse on this site, cookies collect data to enhance your experience and personalize the content and advertising you see.
Visit our Privacy Policy to learn more. By continuing to use the site, you agree to this use of cookies and data.
  • In Hungary
  • List of Countries
  • For 7 days
  • Water Temperature
  • Satellite Maps
  • Weather Map
  • News
  • Weather Widgets
  • user-avatar
    Login

    Hourly Weather Umianowice

    Today, 27 May, Monday

    Time Temperature Precipitation Wind Pressure Humidity
    00:00 +14°C° 0 mm 2 mps 742 mmHg 89%
    01:00 +15°C° 0 mm 2 mps 742 mmHg 90%
    02:00 +15°C° 0 mm 2 mps 742 mmHg 91%
    03:00 +14°C° 0 mm 2 mps 742 mmHg 91%
    04:00 +14°C° 0 mm 2 mps 742 mmHg 92%
    05:00 +16°C° 0 mm 2 mps 742 mmHg 88%
    06:00 +18°C° 0 mm 3 mps 742 mmHg 84%
    07:00 +19°C° 0 mm 3 mps 742 mmHg 80%
    08:00 +21°C° 0.3 mm 3 mps 742 mmHg 73%
    09:00 +22°C° 0.3 mm 4 mps 741 mmHg 66%
    10:00 +25°C° 0.3 mm 4 mps 741 mmHg 59%
    11:00 +25°C° 0.2 mm 3 mps 741 mmHg 57%
    12:00 +26°C° 0.2 mm 3 mps 741 mmHg 55%
    13:00 +26°C° 0.2 mm 3 mps 741 mmHg 53%
    14:00 +26°C° 0 mm 3 mps 740 mmHg 54%
    15:00 +26°C° 0 mm 3 mps 740 mmHg 55%
    16:00 +27°C° 0 mm 3 mps 740 mmHg 56%
    17:00 +25°C° 0.2 mm 3 mps 739 mmHg 64%
    18:00 +22°C° 0.2 mm 3 mps 739 mmHg 72%
    19:00 +20°C° 0.2 mm 3 mps 739 mmHg 80%
    20:00 +20°C° 0.1 mm 3 mps 739 mmHg 83%
    21:00 +19°C° 0.1 mm 2 mps 738 mmHg 86%
    22:00 +18°C° 0.1 mm 2 mps 738 mmHg 88%
    23:00 +18°C° 0 mm 2 mps 738 mmHg 89%

    Tomorrow, 28 May, Tuesday

    Time Temperature Precipitation Wind Pressure Humidity
    00:00 +17°C° 0 mm 2 mps 738 mmHg 90%
    01:00 +17°C° 0 mm 2 mps 737 mmHg 91%
    02:00 +16°C° 0 mm 2 mps 737 mmHg 91%
    03:00 +16°C° 0 mm 2 mps 737 mmHg 92%
    04:00 +16°C° 0 mm 2 mps 737 mmHg 92%
    05:00 +17°C° 0 mm 2 mps 736 mmHg 88%
    06:00 +18°C° 0 mm 3 mps 736 mmHg 84%
    07:00 +20°C° 0 mm 3 mps 736 mmHg 80%
    08:00 +21°C° 0.4 mm 3 mps 736 mmHg 76%
    09:00 +22°C° 0.4 mm 4 mps 736 mmHg 71%
    10:00 +23°C° 0.4 mm 4 mps 736 mmHg 67%
    11:00 +23°C° 1.1 mm 4 mps 736 mmHg 68%
    12:00 +23°C° 1.1 mm 4 mps 736 mmHg 69%
    13:00 +24°C° 1.1 mm 3 mps 735 mmHg 69%
    14:00 +22°C° 1.2 mm 3 mps 735 mmHg 73%
    15:00 +23°C° 1.2 mm 2 mps 735 mmHg 77%
    16:00 +21°C° 1.2 mm 2 mps 735 mmHg 80%
    17:00 +21°C° 0.9 mm 1 mps 735 mmHg 81%
    18:00 +20°C° 0.9 mm 1 mps 735 mmHg 82%
    19:00 +20°C° 0.9 mm 1 mps 735 mmHg 83%
    20:00 +19°C° 0.3 mm 1 mps 735 mmHg 84%
    21:00 +18°C° 0.3 mm 1 mps 736 mmHg 85%
    22:00 +16°C° 0.3 mm 1 mps 736 mmHg 86%
    23:00 +16°C° 0 mm 1 mps 736 mmHg 89%

    Day after tomorrow, 29 May, Wednesday

    Time Temperature Precipitation Wind Pressure Humidity
    00:00 +15°C° 0 mm 2 mps 737 mmHg 91%
    01:00 +15°C° 0 mm 2 mps 737 mmHg 93%
    02:00 +13°C° 0 mm 3 mps 738 mmHg 94%
    03:00 +13°C° 0 mm 3 mps 738 mmHg 95%
    04:00 +13°C° 0 mm 3 mps 739 mmHg 97%
    05:00 +13°C° 0.1 mm 4 mps 739 mmHg 95%
    06:00 +12°C° 0.1 mm 4 mps 740 mmHg 94%
    07:00 +12°C° 0.1 mm 5 mps 741 mmHg 93%
    08:00 +10°C° 0.1 mm 5 mps 742 mmHg 92%
    09:00 +10°C° 0.1 mm 5 mps 742 mmHg 92%
    10:00 +9°C° 0.1 mm 5 mps 743 mmHg 91%
    11:00 +10°C° 0 mm 5 mps 743 mmHg 88%
    12:00 +10°C° 0 mm 5 mps 744 mmHg 85%
    13:00 +12°C° 0 mm 5 mps 744 mmHg 82%
    14:00 +13°C° 0 mm 5 mps 744 mmHg 78%
    15:00 +13°C° 0 mm 5 mps 744 mmHg 75%
    16:00 +14°C° 0 mm 4 mps 745 mmHg 71%
    17:00 +14°C° 0 mm 4 mps 745 mmHg 74%
    18:00 +13°C° 0 mm 3 mps 745 mmHg 77%
    19:00 +12°C° 0 mm 3 mps 745 mmHg 79%
    20:00 +12°C° 0 mm 2 mps 745 mmHg 81%
    21:00 +12°C° 0 mm 2 mps 746 mmHg 83%
    22:00 +10°C° 0 mm 2 mps 746 mmHg 84%
    23:00 +10°C° 0 mm 3 mps 746 mmHg 81%

    30 May, Thursday

    Time Temperature Precipitation Wind Pressure Humidity
    00:00 +10°C° 0 mm 3 mps 746 mmHg 79%
    01:00 +10°C° 0 mm 4 mps 746 mmHg 76%
    02:00 +10°C° 0 mm 3 mps 746 mmHg 77%
    03:00 +9°C° 0 mm 3 mps 746 mmHg 78%
    04:00 +9°C° 0 mm 3 mps 746 mmHg 79%
    05:00 +9°C° 0.2 mm 3 mps 747 mmHg 81%
    06:00 +9°C° 0.2 mm 3 mps 747 mmHg 82%
    07:00 +9°C° 0.2 mm 3 mps 747 mmHg 84%
    08:00 +10°C° 0 mm 3 mps 747 mmHg 80%
    09:00 +11°C° 0 mm 3 mps 747 mmHg 76%
    10:00 +12°C° 0 mm 3 mps 748 mmHg 72%
    11:00 +14°C° 0 mm 3 mps 748 mmHg 67%
    12:00 +16°C° 0 mm 3 mps 747 mmHg 61%
    13:00 +17°C° 0 mm 3 mps 747 mmHg 56%
    14:00 +18°C° 0 mm 3 mps 747 mmHg 55%
    15:00 +18°C° 0 mm 3 mps 747 mmHg 55%
    16:00 +18°C° 0 mm 2 mps 747 mmHg 54%
    17:00 +17°C° 0 mm 2 mps 747 mmHg 59%
    18:00 +16°C° 0 mm 2 mps 748 mmHg 64%
    19:00 +15°C° 0 mm 2 mps 748 mmHg 70%
    20:00 +14°C° 0 mm 2 mps 748 mmHg 69%
    21:00 +13°C° 0 mm 2 mps 748 mmHg 68%
    22:00 +12°C° 0 mm 2 mps 748 mmHg 68%
    23:00 +10°C° 0 mm 2 mps 748 mmHg 68%

    31 May, Friday

    Time Temperature Precipitation Wind Pressure Humidity
    00:00 +10°C° 0 mm 2 mps 748 mmHg 69%
    01:00 +9°C° 0 mm 2 mps 748 mmHg 70%
    02:00 +9°C° 0 mm 2 mps 748 mmHg 70%
    03:00 +10°C° 0 mm 1 mps 748 mmHg 71%
    04:00 +9°C° 0 mm 1 mps 748 mmHg 71%
    05:00 +11°C° 0 mm 1 mps 748 mmHg 68%
    06:00 +13°C° 0 mm 1 mps 748 mmHg 65%
    07:00 +15°C° 0 mm 1 mps 748 mmHg 61%
    08:00 +16°C° 0 mm 1 mps 748 mmHg 58%
    09:00 +19°C° 0 mm 1 mps 747 mmHg 55%
    10:00 +20°C° 0 mm 1 mps 747 mmHg 52%
    11:00 +21°C° 0 mm 1 mps 747 mmHg 51%
    12:00 +21°C° 0 mm 1 mps 747 mmHg 50%
    13:00 +22°C° 0 mm 1 mps 746 mmHg 48%
    14:00 +22°C° 0 mm 1 mps 746 mmHg 48%
    15:00 +22°C° 0 mm 1 mps 746 mmHg 49%
    16:00 +22°C° 0 mm 1 mps 745 mmHg 49%
    17:00 +21°C° 0 mm 1 mps 745 mmHg 55%
    18:00 +17°C° 0 mm 0 mps 745 mmHg 61%
    19:00 +16°C° 0 mm 0 mps 745 mmHg 66%
    20:00 +16°C° 0 mm 1 mps 745 mmHg 69%
    21:00 +15°C° 0 mm 1 mps 745 mmHg 72%
    22:00 +14°C° 0 mm 2 mps 745 mmHg 74%
    23:00 +14°C° 0 mm 2 mps 745 mmHg 76%

    1 June, Saturday

    Time Temperature Precipitation Wind Pressure Humidity
    00:00 +14°C° 0 mm 2 mps 745 mmHg 77%
    01:00 +14°C° 0 mm 2 mps 745 mmHg 79%
    02:00 +13°C° 0.1 mm 4 mps 745 mmHg 83%
    03:00 +13°C° 0.1 mm 5 mps 746 mmHg 88%
    04:00 +13°C° 0.1 mm 6 mps 746 mmHg 92%
    05:00 +11°C° 0.1 mm 6 mps 746 mmHg 91%
    06:00 +10°C° 0.1 mm 6 mps 746 mmHg 90%
    07:00 +10°C° 0.1 mm 6 mps 747 mmHg 90%
    08:00 +10°C° 0 mm 6 mps 747 mmHg 88%
    09:00 +10°C° 0 mm 6 mps 747 mmHg 87%
    10:00 +10°C° 0 mm 5 mps 747 mmHg 86%
    11:00 +11°C° 0 mm 6 mps 747 mmHg 84%
    12:00 +13°C° 0 mm 6 mps 747 mmHg 82%
    13:00 +13°C° 0 mm 6 mps 747 mmHg 80%
    14:00 +14°C° 0 mm 6 mps 747 mmHg 79%
    15:00 +14°C° 0 mm 6 mps 747 mmHg 77%
    16:00 +15°C° 0 mm 6 mps 747 mmHg 76%
    17:00 +14°C° 0 mm 5 mps 747 mmHg 78%
    18:00 +14°C° 0 mm 4 mps 747 mmHg 80%
    19:00 +14°C° 0 mm 3 mps 747 mmHg 82%
    20:00 +13°C° 0 mm 3 mps 748 mmHg 82%
    21:00 +13°C° 0 mm 3 mps 748 mmHg 83%
    22:00 +12°C° 0 mm 3 mps 748 mmHg 84%
    23:00 +11°C° 0 mm 3 mps 748 mmHg 85%
    Show more